Regional Weather Roundup
Issued by NWS

Home | Current Version | Previous Version | Graphics & Text | Print | Product List | Glossary On
Versions: 1 2 3 4 5 6 7 8 9 10 11 12 13 14 15 16 17 18 19 20 21 22 23 24 25 26 27 28 29 30 31 32 33 34 35 36 37 38 39 40 41 42 43 44 45 46 47 48 49 50
000
ASUS43 KOAX 041902
RWRNE

WEATHER ROUNDUP FOR NEBRASKA
NATIONAL WEATHER SERVICE OMAHA NE
100 PM CST SUN DEC 04 2016

NOTES: SATELLITE DATA IS BEING USED TO AUGMENT CLOUD COVER ABOVE
       12000 FEET.
       "FAIR" INDICATES FEW OR NO CLOUDS BELOW 12,000 FEET WITH NO
       SIGNIFICANT WEATHER AND/OR OBSTRUCTIONS TO VISIBILITY.

  * THESE STATIONS DO NOT REPORT WEATHER SUCH AS RAIN...SNOW OR FOG.

NEZ001>004-019>022-054>056-042000-
NEBRASKA PANHANDLE

CITY           SKY/WX    TMP DP  RH WIND       PRES   REMARKS
SCOTTSBLUFF    SUNNY     48  13  24 W12G21    29.87F
ALLIANCE       SUNNY     45  16  31 W18       29.87F
CHADRON        SUNNY     46  15  28 SW15      29.84F
KIMBALL        CLOUDY    46  13  26 SW14      29.89F
SIDNEY         SUNNY     47   9  21 SW22      29.91F
$$

NEZ057>060-069>072-079>082-042000-
SOUTHWEST NEBRASKA

CITY           SKY/WX    TMP DP  RH WIND       PRES   REMARKS
NORTH PLATTE   SUNNY     49  17  28 W14       29.93F
IMPERIAL       SUNNY     47  11  23 W14G21    29.95F
LEXINGTON      SUNNY     48  22  36 W9        29.93F
MCCOOK         SUNNY     49  19  30 NW12G18   29.96F
OGALLALA       SUNNY     49  18  29 W12G17    29.92F
$$

NEZ005>010-023>029-035>040-094-042000-
NORTH CENTRAL NEBRASKA

CITY           SKY/WX    TMP DP  RH WIND       PRES   REMARKS
VALENTINE      SUNNY     46  19  34 W16       29.86F
AINSWORTH      SUNNY     47  21  36 NW14      29.87F
BROKEN BOW     SUNNY     49  25  39 W14       29.89F
O`NEILL        SUNNY     49  25  39 NW9       29.88F
ORD            SUNNY     48  24  39 SW9       29.89F
THEDFORD       SUNNY     49  19  30 W14       29.89F
$$

NEZ041-046>049-061>064-073>077-083>087-042000-
SOUTH CENTRAL NEBRASKA

CITY           SKY/WX    TMP DP  RH WIND       PRES   REMARKS
GRAND ISLAND   SUNNY     48  31  51 W8        29.93F
AURORA         SUNNY     45  36  70 W8        29.93F
HASTINGS       SUNNY     44  34  67 W9        29.95F
HEBRON         SUNNY     34  31  88 W9        29.98F WCI  27
HOLDREGE       SUNNY     45  31  56 W8        29.94F
KEARNEY *      SUNNY     46  27  46 W8        29.93F
YORK           SUNNY     41  36  81 SW7       29.94F
$$

NEZ011>018-030>034-042>045-042000-
NORTHEAST NEBRASKA

CITY           SKY/WX    TMP DP  RH WIND       PRES   REMARKS
NORFOLK        SUNNY     47  28  47 W13       29.88F
ALBION         SUNNY     48  29  48 W6        29.89F
BLAIR          SUNNY     36  32  87 SW9       29.91F WCI  29
FREMONT        SUNNY     38  33  80 S6        29.92F WCI  34
TEKAMAH        SUNNY     37  32  82 SW6       29.92F WCI  32
WAYNE          SUNNY     49  33  55 W14       29.88F
$$

NEZ050>053-065>068-078-088>093-042000-
SOUTHEAST NEBRASKA

CITY           SKY/WX    TMP DP  RH WIND       PRES   REMARKS
LINCOLN        CLOUDY    34  31  88 SW9       29.97F WCI  27
OMAHA EPPLEY   MOSUNNY   38  32  79 SW9       29.94F WCI  31
BEATRICE       CLOUDY    35  33  93 W8        29.97S WCI  29
FALLS CITY     CLOUDY    39  35  86 W12       29.97F WCI  32
NEBRASKA CITY  MOSUNNY   38  33  84 W8        29.94F WCI  32
PLATTSMOUTH    PTSUNNY   36  31  84 W10       29.94F WCI  28
$$

NEZ044-045-051>053-067-042000-
OMAHA AREA

CITY           SKY/WX    TMP DP  RH WIND       PRES   REMARKS
OMAHA EPPLEY   MOSUNNY   38  32  79 SW9       29.94F WCI  31
BLAIR          SUNNY     36  32  87 SW9       29.91F WCI  29
FREMONT        SUNNY     38  33  80 S6        29.92F WCI  34
MILLARD        MOSUNNY   36  32  85 SW7       29.95F WCI  30
OFFUTT AFB     MOSUNNY   37  37 100 SW8       29.94F WCI  31
PLATTSMOUTH    PTSUNNY   36  31  84 W10       29.94F WCI  28
WAHOO          FAIR      37  32  84 SW8       29.92F WCI  30
$$




USA.gov is the U.S. government's official web portal to all federal, state and local government web resources and services.